Location: Lake Zurich
(42.1970°N, 88.0930°W)
Time: 06:51:45
(UTC-05:00)

Amateur Radio Satellites - All Passes

Search period start: 29 September 2016 06:21
Search period end: 30 September 2016 06:21
Location: Lake Zurich, 42.1970°N, 88.0930°W

Satellite Date Start Highest point End Downlink Frequencies (MHz)
Time Altitude Azimuth
CUTE-I 29 Sep 06:25:43 06:30:12 27° 95° (E) 06:34:40 437.470
Cubesat XI-IV 29 Sep 06:26:01 06:30:29 26° 95° (E) 06:34:57 437.490
DOVE 4 29 Sep 06:32:17 06:34:04 12° 90° (E) 06:35:51 437.250
BRITE-PL 29 Sep 06:33:34 06:38:25 85° 106° (ESE) 06:42:50 437.365/2234.400
O/OREOS (USA 219) 29 Sep 06:38:03 06:42:01 30° 104° (ESE) 06:46:02 437.305
AO-85 29 Sep 06:38:38 06:42:11 28° 246° (WSW) 06:45:33 145.980
NOAA 18 29 Sep 07:17:54 07:23:20 61° 102° (ESE) 07:28:44 137.9125
HO-68 29 Sep 07:23:37 07:27:52 16° 89° (E) 07:32:05 435.675
STRAND 1 29 Sep 07:27:32 07:32:38 80° 256° (WSW) 07:37:47 437.568
DANDE 29 Sep 07:28:36 07:36:56 66° 266° (W) 07:44:32 436.750
CANX-2 29 Sep 07:28:37 07:30:02 11° 89° (E) 07:31:27 2200.000
CUSAT 1 29 Sep 07:28:40 07:34:54 29° 276° (W) 07:40:16 437.405
HORYU 2 29 Sep 07:33:12 07:35:45 15° 298° (WNW) 07:38:18 437.375
CINEMA 3 29 Sep 07:33:19 07:35:50 15° 92° (E) 07:38:22 145.822/145.860
LilacSat-2 29 Sep 07:37:28 07:41:08 45° 287° (WNW) 07:44:49 437.200
NOAA 15 29 Sep 07:44:15 07:49:23 51° 290° (WNW) 07:54:28 137.62
AO-7 29 Sep 07:46:16 07:48:42 12° 320° (NW) 07:51:08 29.400- 29.500
GONETS M04 29 Sep 07:54:19 08:02:07 37° 85° (E) 08:09:56
GOMX 1 29 Sep 07:54:20 07:58:14 32° 291° (WNW) 08:01:58 467.674
RS-15 29 Sep 08:02:34 08:08:21 15° 266° (W) 08:14:05 29.354- 29.394
CUTE-I 29 Sep 08:05:22 08:10:21 41° 292° (WNW) 08:15:20 437.470
Cubesat XI-IV 29 Sep 08:05:40 08:10:40 41° 291° (WNW) 08:15:39 437.490
DOVE 4 29 Sep 08:08:04 08:12:09 52° 287° (WNW) 08:16:10 437.250
BEESAT 3 29 Sep 08:08:28 08:10:30 13° 39° (NE) 08:12:33 437.485
BRITE-PL 29 Sep 08:14:42 08:16:01 11° 302° (WNW) 08:17:20 437.365/2234.400
PRISM 29 Sep 08:14:45 08:18:23 30° 69° (ENE) 08:22:02 437.425
O/OREOS (USA 219) 29 Sep 08:17:27 08:21:23 28° 302° (WNW) 08:25:23 437.305
COMPASS 1 29 Sep 08:28:29 08:31:47 22° 94° (E) 08:35:02 437.405
CUBEBUG 2 29 Sep 08:30:43 08:33:45 18° 93° (E) 08:36:50 437.445
Cosmos 2499 29 Sep 08:37:18 08:44:11 54° 92° (E) 08:51:00 435.465 / 435.565
UWE-3 29 Sep 08:45:46 08:48:45 18° 93° (E) 08:51:47 435.000/436.395/437.385
SEEDS 29 Sep 08:59:07 09:03:24 71° 102° (ESE) 09:07:38 437.485
NOAA 18 29 Sep 08:59:39 09:03:30 20° 299° (WNW) 09:07:23 137.9125
CUTE 1.7 + AOD 2 29 Sep 09:00:26 09:04:44 77° 285° (WNW) 09:09:02 437.475
CANX-2 29 Sep 09:02:02 09:06:18 64° 285° (WNW) 09:10:33 2200.000
BEESAT 2 29 Sep 09:06:14 09:09:29 23° 46° (NE) 09:12:42 435.950
Oscar 11 29 Sep 09:07:00 09:10:03 18° 92° (E) 09:13:04 145.826/435.025
CINEMA 3 29 Sep 09:09:13 09:13:12 44° 288° (WNW) 09:17:15 145.822/145.860
HO-68 29 Sep 09:09:15 09:16:27 88° 282° (WNW) 09:23:37 435.675
UNISAT 6 29 Sep 09:09:17 09:11:50 16° 64° (ENE) 09:14:23 437.425
ZACube-1 29 Sep 09:11:28 09:14:51 22° 94° (E) 09:18:15 437.345
DANDE 29 Sep 09:14:39 09:18:03 13° 285° (WNW) 09:21:22 436.750
AAUSAT CUBESAT 2 29 Sep 09:17:25 09:21:35 60° 100° (E) 09:25:42 437.432
PHONESAT 2.4 29 Sep 09:34:25 09:35:30 12° 150° (SSE) 09:36:36 2401.200-2431.200
ANTELSAT 29 Sep 09:43:05 09:46:56 34° 70° (ENE) 09:50:47 437.575/2403.000
BEESAT 3 29 Sep 09:44:42 09:48:42 81° 237° (WSW) 09:52:39 437.485
GONETS M04 29 Sep 09:50:07 09:58:37 51° 285° (WNW) 10:07:13
PRISM 29 Sep 09:50:19 09:53:41 23° 265° (W) 09:57:03 437.425
TIGRISAT 29 Sep 10:02:50 10:06:58 53° 73° (ENE) 10:11:07 435.000
COMPASS 1 29 Sep 10:03:36 10:07:22 32° 290° (WNW) 10:11:07 437.405
FUNcube-1 29 Sep 10:03:57 10:08:18 75° 101° (ESE) 10:12:44 145.935
CUBEBUG 2 29 Sep 10:06:29 10:10:30 40° 288° (WNW) 10:14:38 437.445
POPSAT HIP 1 29 Sep 10:19:06 10:20:33 12° 62° (ENE) 10:22:00 437.405
UWE-3 29 Sep 10:21:17 10:25:22 42° 288° (WNW) 10:29:32 435.000/436.395/437.385
DELFI C3 29 Sep 10:24:24 10:28:20 51° 99° (E) 10:32:13 145.870
Cosmos 2499 29 Sep 10:31:50 10:37:39 27° 291° (WNW) 10:43:29 435.465 / 435.565
NANOSAT C BR1 29 Sep 10:33:05 10:35:36 16° 64° (ENE) 10:38:09 145.865
SEEDS 29 Sep 10:37:04 10:38:30 11° 298° (WNW) 10:39:55 437.485
Oscar 11 29 Sep 10:42:15 10:46:21 41° 289° (WNW) 10:50:26 145.826/435.025
BEESAT 2 29 Sep 10:43:41 10:47:25 37° 244° (WSW) 10:51:07 435.950
UNISAT 6 29 Sep 10:44:02 10:48:10 48° 260° (W) 10:52:19 437.425
ZACube-1 29 Sep 10:47:15 10:51:11 35° 289° (WNW) 10:55:12 437.345
JAS-2 29 Sep 10:51:10 10:56:56 32° 61° (ENE) 11:03:15 435.910
HUMSAT D 29 Sep 10:53:31 10:57:42 54° 100° (E) 11:01:54 437.325/437.525
AAUSAT CUBESAT 2 29 Sep 10:54:38 10:56:33 13° 297° (WNW) 10:58:26 437.432
QB50P2 29 Sep 10:56:40 11:00:23 31° 69° (ENE) 11:04:06 145.880/145.840
HO-68 29 Sep 10:58:35 11:03:12 19° 306° (NW) 11:07:51 435.675
POLYITAN 1 29 Sep 10:58:53 11:02:34 31° 70° (ENE) 11:06:17 437.675
PHONESAT 2.4 29 Sep 11:08:21 11:11:07 39° 165° (SSE) 11:13:54 2401.200-2431.200
PCSat 29 Sep 11:19:47 11:21:18 11° 33° (NNE) 11:22:51 145.827
ANTELSAT 29 Sep 11:20:32 11:23:44 20° 266° (W) 11:26:56 437.575/2403.000
BUGSAT 1 29 Sep 11:30:32 11:33:52 24° 68° (ENE) 11:37:10 437.445
DUCHIFAT 1 29 Sep 11:33:57 11:38:06 67° 74° (ENE) 11:42:15 145.980
QB50P1 29 Sep 11:37:51 11:42:03 85° 73° (ENE) 11:46:17 145.935-145.965
AIST 2 29 Sep 11:41:53 11:45:44 33° 49° (NE) 11:49:34 435.215
TIGRISAT 29 Sep 11:41:58 11:44:00 13° 269° (W) 11:46:01 435.000
FUNcube-1 29 Sep 11:42:33 11:43:58 11° 298° (WNW) 11:45:24 145.935
POPSAT HIP 1 29 Sep 11:51:36 11:55:47 68° 259° (W) 11:59:58 437.405
CUBEBUG 1 29 Sep 11:52:28 11:55:55 23° 94° (E) 11:59:19 437.445
VELOX 1 29 Sep 11:52:56 11:55:54 18° 93° (E) 11:58:50 145.980
ESTCUBE 1 29 Sep 11:59:39 12:04:00 43° 99° (E) 12:08:18 437.505/2401.250
DELFI C3 29 Sep 12:00:40 12:02:44 14° 296° (WNW) 12:04:47 145.870
NANOSAT C BR1 29 Sep 12:06:55 12:10:58 47° 261° (W) 12:15:01 145.865
SPROUT 29 Sep 12:25:30 12:28:50 22° 94° (E) 12:32:08 437.525
HUMSAT D 29 Sep 12:30:32 12:32:53 15° 296° (WNW) 12:35:14 437.325/437.525
QB50P2 29 Sep 12:32:54 12:36:13 22° 266° (W) 12:39:32 145.880/145.840
Gurwin Techsat 1B 29 Sep 12:33:18 12:36:09 15° 59° (ENE) 12:39:00 435.225
POLYITAN 1 29 Sep 12:35:07 12:38:24 22° 266° (W) 12:41:43 437.675
JAS-2 29 Sep 12:35:12 12:41:33 52° 262° (W) 12:48:43 435.910
UKube-1 29 Sep 12:42:46 12:46:30 28° 96° (E) 12:50:13 .
PHONESAT 2.4 29 Sep 12:44:09 12:47:04 62° 181° (S) 12:49:59 2401.200-2431.200
AISAT 29 Sep 12:44:44 12:49:07 68° 101° (ESE) 12:53:28 437.250
AUBIESAT-1 29 Sep 12:53:18 12:56:04 24° 102° (ESE) 12:58:53 437.475
50 SAT 29 Sep 12:58:25 13:02:06 81° 284° (WNW) 13:05:44 437.505
Oscar 19 29 Sep 12:58:47 13:03:45 48° 70° (ENE) 13:08:45 437.125/150
PCSat 29 Sep 13:00:45 13:06:03 50° 55° (NE) 13:11:18 145.827
BUGSAT 1 29 Sep 13:05:39 13:09:08 27° 264° (W) 13:12:38 437.445
AO-7 29 Sep 13:09:55 13:13:41 14° 44° (NE) 13:17:28 29.400- 29.500
DUCHIFAT 1 29 Sep 13:13:35 13:14:13 10° 271° (W) 13:14:50 145.980
DX 1 29 Sep 13:14:16 13:18:38 84° 105° (ESE) 13:22:58 434.975-435.025
AIST 2 29 Sep 13:20:36 13:24:04 25° 247° (WSW) 13:27:32 435.215
CUBEBUG 1 29 Sep 13:28:22 13:32:14 32° 291° (WNW) 13:36:04 437.445
VELOX 1 29 Sep 13:28:23 13:32:34 43° 289° (WNW) 13:36:42 145.980
Cosmos 2504 29 Sep 13:30:17 13:34:31 16° 62° (ENE) 13:38:51 435.465 / 435.565
M-CUBED/EXP-1 PRIME 29 Sep 13:31:52 13:35:08 72° 290° (WNW) 13:38:24 437.505
ESTCUBE 1 29 Sep 13:37:14 13:40:29 20° 295° (WNW) 13:43:42 437.505/2401.250
Cosmos 2491 29 Sep 13:39:07 13:45:45 25° 80° (E) 13:52:23 435.465 / 435.565
TISAT 1 29 Sep 13:39:27 13:43:02 27° 96° (E) 13:46:35 437.305
YUBILEINY 29 Sep 13:40:24 13:48:49 51° 75° (ENE) 13:57:11 435.215
ITAMSAT 1 29 Sep 13:56:50 14:00:51 23° 64° (ENE) 14:04:54 435.822/435.867
SPROUT 29 Sep 14:01:01 14:04:48 32° 291° (WNW) 14:08:36 437.525
Gurwin Techsat 1B 29 Sep 14:10:06 14:15:24 81° 257° (WSW) 14:20:45 435.225
UKube-1 29 Sep 14:18:52 14:22:27 26° 293° (WNW) 14:26:02 .
PHONESAT 2.4 29 Sep 14:20:16 14:22:57 32° 198° (SSW) 14:25:38 2401.200-2431.200
AISAT 29 Sep 14:23:06 14:25:01 13° 299° (WNW) 14:26:56 437.250
AUBIESAT-1 29 Sep 14:28:08 14:30:26 18° 298° (WNW) 14:32:44 437.475
Oscar 19 29 Sep 14:39:22 14:43:18 21° 267° (W) 14:47:15 437.125/150
PCSat 29 Sep 14:44:50 14:49:05 24° 253° (WSW) 14:53:20 145.827
ITUPSAT 1 29 Sep 14:48:18 14:52:31 29° 96° (E) 14:56:42 437.325
DX 1 29 Sep 14:53:29 14:54:08 10° 300° (WNW) 14:54:48 434.975-435.025
AO-7 29 Sep 14:56:39 15:04:43 57° 65° (ENE) 15:12:47 29.400- 29.500
SWISSCUBE 29 Sep 15:00:08 15:04:44 44° 99° (E) 15:09:18 437.505
SO-50 29 Sep 15:10:53 15:15:43 80° 121° (ESE) 15:20:31 436.795
BEESAT 29 Sep 15:12:51 15:17:33 53° 100° (E) 15:22:13 436.000
TISAT 1 29 Sep 15:15:09 15:18:35 25° 292° (WNW) 15:22:01 437.305
Cosmos 2504 29 Sep 15:21:30 15:29:00 83° 82° (E) 15:37:01 435.465 / 435.565
Cosmos 2491 29 Sep 15:32:55 15:41:40 72° 280° (W) 15:50:33 435.465 / 435.565
ITAMSAT 1 29 Sep 15:35:04 15:40:00 46° 260° (W) 15:45:01 435.822/435.867
YUBILEINY 29 Sep 15:37:41 15:45:18 36° 275° (W) 15:52:56 435.215
BRITE-PL 29 Sep 16:07:55 16:11:07 16° 61° (ENE) 16:14:17 437.365/2234.400
AIST 1 29 Sep 16:17:36 16:21:53 67° 81° (E) 16:26:07
MOZHAYETS 4 29 Sep 16:23:02 16:27:35 51° 100° (E) 16:32:06
ITUPSAT 1 29 Sep 16:26:05 16:30:18 31° 293° (WNW) 16:34:30 437.325
KKS-1 29 Sep 16:35:09 16:39:21 41° 99° (E) 16:43:31 437.445
SWISSCUBE 29 Sep 16:38:36 16:42:13 22° 296° (WNW) 16:45:50 437.505
O/OREOS (USA 219) 29 Sep 16:46:55 16:51:31 64° 65° (ENE) 16:56:03 437.305
AO-7 29 Sep 16:50:31 16:57:49 33° 264° (W) 17:05:07 29.400- 29.500
BEESAT 29 Sep 16:51:40 16:54:55 18° 297° (WNW) 16:58:09 436.000
SO-50 29 Sep 16:53:28 16:56:45 18° 321° (NW) 17:00:01 436.795
HORYU 2 29 Sep 16:53:32 16:57:50 56° 72° (ENE) 17:02:09 437.375
STARS 29 Sep 17:03:41 17:07:48 39° 99° (E) 17:11:53 437.465
NOAA 18 29 Sep 17:06:44 17:10:15 18° 59° (ENE) 17:13:47 137.9125
Cosmos 2504 29 Sep 17:16:48 17:21:28 18° 280° (W) 17:26:19 435.465 / 435.565
GOMX 1 29 Sep 17:24:04 17:28:43 31° 69° (ENE) 17:33:10 467.674
NOAA 15 29 Sep 17:25:35 17:30:22 35° 67° (ENE) 17:35:10 137.62
Cosmos 2491 29 Sep 17:35:35 17:40:19 15° 303° (WNW) 17:45:05 435.465 / 435.565
DOVE 4 29 Sep 17:37:26 17:40:40 18° 65° (ENE) 17:43:48 437.250
BRITE-PL 29 Sep 17:43:11 17:48:54 84° 258° (WSW) 17:54:29 437.365/2234.400
CUBESAT XI-V 29 Sep 17:47:51 17:52:28 53° 100° (E) 17:57:01 437.345
CUTE-I 29 Sep 17:47:52 17:52:53 45° 70° (ENE) 17:57:56 437.470
Cubesat XI-IV 29 Sep 17:48:20 17:53:21 45° 69° (ENE) 17:58:25 437.490
HO-68 29 Sep 17:54:36 17:58:21 15° 51° (NE) 18:02:07 435.675
MOZHAYETS 4 29 Sep 18:01:15 18:04:20 18° 296° (WNW) 18:07:25
RS-15 29 Sep 18:02:08 18:09:33 20° 97° (E) 18:17:08 29.354- 29.394
GONETS M04 29 Sep 18:04:14 18:10:00 19° 60° (ENE) 18:15:42
KKS-1 29 Sep 18:12:26 18:15:37 20° 295° (WNW) 18:18:49 437.445
LilacSat-2 29 Sep 18:19:22 18:23:08 90° 145° (SE) 18:26:56 437.200
Cosmos 2499 29 Sep 18:27:13 18:32:33 20° 65° (ENE) 18:38:05 435.465 / 435.565
O/OREOS (USA 219) 29 Sep 18:28:17 18:30:19 13° 262° (W) 18:32:20 437.305
HORYU 2 29 Sep 18:32:29 18:34:43 14° 269° (W) 18:36:59 437.375
CINEMA 3 29 Sep 18:35:46 18:38:31 17° 65° (ENE) 18:41:13 145.822/145.860
STARS 29 Sep 18:40:42 18:43:52 20° 295° (WNW) 18:47:02 437.465
NOAA 18 29 Sep 18:44:53 18:50:20 70° 257° (WSW) 18:55:48 137.9125
CUSAT 1 29 Sep 18:46:00 18:52:13 53° 92° (E) 18:59:39 437.405
ISS 29 Sep 18:49:58 18:51:37 13° 131° (SE) 18:53:17 145.825
DANDE 29 Sep 18:55:34 18:59:49 23° 81° (E) 19:04:53 436.750
GOMX 1 29 Sep 19:01:50 19:06:41 34° 264° (W) 19:11:22 467.674
NOAA 15 29 Sep 19:05:31 19:10:08 30° 264° (W) 19:14:49 137.62
DOVE 4 29 Sep 19:13:08 19:18:01 54° 260° (W) 19:22:39 437.250
COMPASS 1 29 Sep 19:20:17 19:22:57 17° 65° (ENE) 19:25:37 437.405
BRITE-PL 29 Sep 19:26:15 19:28:01 11° 273° (W) 19:29:47 437.365/2234.400
CUBESAT XI-V 29 Sep 19:26:21 19:29:25 18° 297° (WNW) 19:32:27 437.345
CUTE-I 29 Sep 19:28:57 19:33:07 23° 266° (W) 19:37:20 437.470
Cubesat XI-IV 29 Sep 19:29:26 19:33:38 23° 266° (W) 19:37:50 437.490
CUBEBUG 2 29 Sep 19:30:06 19:32:41 16° 65° (ENE) 19:35:15 437.445
HO-68 29 Sep 19:37:44 19:44:51 72° 71° (ENE) 19:52:00 435.675
STRAND 1 29 Sep 19:37:46 19:42:25 33° 97° (E) 19:47:04 437.568
UWE-3 29 Sep 19:44:10 19:46:33 15° 64° (ENE) 19:48:57 435.000/436.395/437.385
SEEDS 29 Sep 19:50:57 19:55:01 50° 73° (ENE) 19:59:08 437.485
CUTE 1.7 + AOD 2 29 Sep 19:53:05 19:57:19 78° 75° (ENE) 20:01:35 437.475
CANX-2 29 Sep 19:54:45 19:58:59 87° 257° (WSW) 20:03:17 2200.000
GONETS M04 29 Sep 19:59:23 20:08:16 85° 83° (E) 20:17:01
Oscar 11 29 Sep 20:02:50 20:05:26 16° 64° (ENE) 20:08:04 145.826/435.025
AAUSAT CUBESAT 2 29 Sep 20:07:50 20:11:44 41° 72° (ENE) 20:15:41 437.432
RS-15 29 Sep 20:08:19 20:19:53 80° 119° (ESE) 20:32:08 29.354- 29.394
ZACube-1 29 Sep 20:08:31 20:11:16 18° 65° (ENE) 20:14:02 437.345
CINEMA 3 29 Sep 20:11:03 20:15:21 47° 261° (W) 20:19:30 145.822/145.860
Cosmos 2499 29 Sep 20:18:52 20:26:29 83° 264° (W) 20:34:43 435.465 / 435.565
ISS 29 Sep 20:24:28 20:27:43 73° 327° (NNW) 20:30:58 145.825
CUSAT 1 29 Sep 20:28:46 20:34:38 32° 294° (WNW) 20:41:25 437.405
DANDE 29 Sep 20:36:27 20:41:46 56° 286° (WNW) 20:48:45 436.750
AO-85 29 Sep 20:51:28 20:56:40 75° 121° (ESE) 21:01:33 145.980
COMPASS 1 29 Sep 20:54:08 20:58:08 45° 261° (W) 21:02:11 437.405
FUNcube-1 29 Sep 20:59:52 21:03:55 59° 74° (ENE) 21:08:00 145.935
CUBEBUG 2 29 Sep 21:04:59 21:08:59 44° 261° (W) 21:12:58 437.445
DELFI C3 29 Sep 21:10:35 21:14:08 31° 70° (ENE) 21:17:42 145.870
STRAND 1 29 Sep 21:17:02 21:21:30 31° 293° (WNW) 21:25:59 437.568
UWE-3 29 Sep 21:18:38 21:22:38 47° 261° (W) 21:26:40 435.000/436.395/437.385
HO-68 29 Sep 21:27:57 21:33:11 21° 268° (W) 21:38:27 435.675
SEEDS 29 Sep 21:28:47 21:31:01 14° 270° (W) 21:33:16 437.485
PRISM 29 Sep 21:30:24 21:34:22 43° 99° (E) 21:38:16 437.425
Oscar 11 29 Sep 21:36:59 21:41:09 50° 261° (W) 21:45:23 145.826/435.025
ZACube-1 29 Sep 21:43:22 21:47:15 40° 262° (W) 21:51:11 437.345
AAUSAT CUBESAT 2 29 Sep 21:44:42 21:47:23 17° 268° (W) 21:50:07 437.432
HUMSAT D 29 Sep 21:45:11 21:48:58 38° 72° (ENE) 21:52:49 437.325/437.525
TIGRISAT 29 Sep 21:55:58 21:57:05 11° 89° (E) 21:58:14 435.000
GONETS M04 29 Sep 21:58:04 22:03:53 20° 282° (WNW) 22:09:40
ISS 29 Sep 22:02:08 22:04:38 20° 346° (NNW) 22:07:07 145.825
SO-50 29 Sep 22:02:58 22:05:24 14° 35° (NE) 22:07:48 436.795
Cosmos 2499 29 Sep 22:14:38 22:18:29 15° 282° (WNW) 22:22:29 435.465 / 435.565
RS-15 29 Sep 22:22:53 22:33:44 39° 326° (NW) 22:45:03 29.354- 29.394
AO-85 29 Sep 22:33:57 22:37:35 19° 318° (NW) 22:41:04 145.980
UNISAT 6 29 Sep 22:34:53 22:38:51 31° 97° (E) 22:42:52 437.425
FUNcube-1 29 Sep 22:39:15 22:40:33 11° 270° (W) 22:41:52 145.935
DELFI C3 29 Sep 22:46:00 22:49:00 20° 266° (W) 22:52:02 145.870
M-CUBED/EXP-1 PRIME 29 Sep 22:46:02 22:48:01 14° 60° (ENE) 22:49:57 437.505
CUBEBUG 1 29 Sep 22:49:01 22:52:22 21° 66° (ENE) 22:55:42 437.445
VELOX 1 29 Sep 22:50:54 22:53:54 18° 64° (ENE) 22:56:54 145.980
ESTCUBE 1 29 Sep 22:59:24 23:03:40 42° 71° (ENE) 23:07:58 437.505/2401.250
PRISM 29 Sep 23:06:40 23:09:19 17° 296° (WNW) 23:11:56 437.425
ANTELSAT 29 Sep 23:09:51 23:14:18 75° 102° (ESE) 23:18:50 437.575/2403.000
SPROUT 29 Sep 23:19:52 23:22:52 19° 65° (ENE) 23:25:52 437.525
HUMSAT D 29 Sep 23:22:02 23:24:45 17° 268° (W) 23:27:30 437.325/437.525
QB50P1 29 Sep 23:23:43 23:25:42 13° 91° (E) 23:27:41 145.935-145.965
TIGRISAT 29 Sep 23:29:48 23:34:13 72° 284° (WNW) 23:38:42 435.000
50 SAT 29 Sep 23:35:13 23:38:40 43° 73° (ENE) 23:42:09 437.505
POPSAT HIP 1 29 Sep 23:36:40 23:39:36 18° 93° (E) 23:42:31 437.405
BEESAT 3 29 Sep 23:37:11 23:39:16 14° 110° (ESE) 23:41:22 437.485
UKube-1 29 Sep 23:37:46 23:41:22 26° 67° (ENE) 23:45:00 .
AUBIESAT-1 29 Sep 23:39:06 23:42:51 41° 68° (ENE) 23:46:21 437.475
ISS 29 Sep 23:39:50 23:42:01 16° 6° (N) 23:44:12 145.825
SO-50 29 Sep 23:42:04 23:46:40 79° 55° (NE) 23:51:08 436.795
AISAT 29 Sep 23:42:09 23:46:32 63° 74° (ENE) 23:50:57 437.250
JAS-2 29 Sep 23:44:24 23:51:01 29° 91° (E) 23:57:18 435.910
Cosmos 2491 29 Sep 23:49:17 23:52:26 12° 54° (NE) 23:55:34 435.465 / 435.565
NANOSAT C BR1 29 Sep 23:50:59 23:54:28 25° 95° (E) 23:57:55 145.865
DX 1 30 Sep 00:09:50 00:14:11 76° 76° (ENE) 00:18:35 434.975-435.025
UNISAT 6 30 Sep 00:11:49 00:15:27 25° 292° (WNW) 00:19:08 437.425
QB50P2 30 Sep 00:16:05 00:20:15 54° 101° (E) 00:24:23 145.880/145.840
M-CUBED/EXP-1 PRIME 30 Sep 00:18:13 00:22:13 53° 254° (WSW) 00:25:57 437.505
POLYITAN 1 30 Sep 00:18:16 00:22:25 54° 100° (E) 00:26:34 437.675
CUBEBUG 1 30 Sep 00:24:19 00:28:25 37° 262° (W) 00:32:31 437.445
VELOX 1 30 Sep 00:25:43 00:30:00 46° 261° (W) 00:34:18 145.980
TISAT 1 30 Sep 00:31:46 00:35:02 23° 67° (ENE) 00:38:19 437.305
BEESAT 2 30 Sep 00:35:44 00:39:12 30° 115° (ESE) 00:42:42 435.950
ESTCUBE 1 30 Sep 00:37:25 00:40:39 19° 267° (W) 00:43:54 437.505/2401.250
RS-15 30 Sep 00:41:39 00:51:05 24° 360° (N) 01:00:37 29.354- 29.394
BUGSAT 1 30 Sep 00:46:12 00:49:58 37° 98° (E) 00:53:43 437.445
ANTELSAT 30 Sep 00:48:46 00:50:26 12° 298° (WNW) 00:52:07 437.575/2403.000
DUCHIFAT 1 30 Sep 00:52:57 00:57:08 70° 285° (WNW) 01:01:18 145.980
SPROUT 30 Sep 00:54:30 00:58:31 40° 262° (W) 01:02:32 437.525
QB50P1 30 Sep 00:57:41 01:01:48 54° 286° (WNW) 01:05:54 145.935-145.965
50 SAT 30 Sep 01:10:56 01:12:23 12° 269° (W) 01:13:52 437.505
Oscar 19 30 Sep 01:11:07 01:14:11 16° 91° (E) 01:17:14 437.125/150
POPSAT HIP 1 30 Sep 01:11:36 01:15:31 38° 289° (WNW) 01:19:26 437.405
BEESAT 3 30 Sep 01:12:41 01:16:29 51° 307° (NW) 01:20:21 437.485
UKube-1 30 Sep 01:13:35 01:17:19 28° 264° (W) 01:21:05 .
AUBIESAT-1 30 Sep 01:15:02 01:17:24 15° 261° (W) 01:19:41 437.475
ISS 30 Sep 01:16:06 01:19:12 37° 26° (NNE) 01:22:17 145.825
AISAT 30 Sep 01:21:33 01:23:25 12° 270° (W) 01:25:17 437.250
SO-50 30 Sep 01:25:02 01:26:26 11° 253° (WSW) 01:27:48 436.795
NANOSAT C BR1 30 Sep 01:26:33 01:30:09 28° 291° (WNW) 01:33:46 145.865
JAS-2 30 Sep 01:28:41 01:36:26 62° 290° (WNW) 01:43:46 435.910
Cosmos 2491 30 Sep 01:42:43 01:51:29 60° 77° (ENE) 02:00:09 435.465 / 435.565
QB50P2 30 Sep 01:53:19 01:55:35 14° 297° (WNW) 01:57:52 145.880/145.840
ITUPSAT 1 30 Sep 01:55:24 01:59:45 36° 69° (ENE) 02:04:07 437.325
POLYITAN 1 30 Sep 01:55:30 01:57:46 14° 297° (WNW) 02:00:03 437.675
TISAT 1 30 Sep 02:06:47 02:10:31 31° 263° (W) 02:14:16 437.305
SWISSCUBE 30 Sep 02:06:52 02:11:29 53° 72° (ENE) 02:16:08 437.505
BEESAT 2 30 Sep 02:13:37 02:17:00 26° 313° (NW) 02:20:25 435.950
BEESAT 30 Sep 02:19:29 02:24:11 64° 73° (ENE) 02:28:55 436.000
BUGSAT 1 30 Sep 02:22:20 02:25:05 18° 294° (WNW) 02:27:49 437.445
Gurwin Techsat 1B 30 Sep 02:25:59 02:30:57 39° 98° (E) 02:35:52 435.225
YUBILEINY 30 Sep 02:41:32 02:50:02 57° 91° (E) 02:58:32 435.215
Oscar 19 30 Sep 02:48:51 02:53:56 63° 288° (WNW) 02:59:00 437.125/150
ISS 30 Sep 02:52:41 02:55:37 30° 223° (SW) 02:58:33 145.825
RS-15 30 Sep 02:57:10 03:08:29 39° 34° (NE) 03:19:40 29.354- 29.394
AO-7 30 Sep 02:59:43 03:04:20 16° 89° (E) 03:08:55 29.400- 29.500
JAS-2 30 Sep 03:16:04 03:19:51 14° 310° (NW) 03:23:35 435.910
AIST 2 30 Sep 03:17:34 03:21:35 57° 119° (ESE) 03:25:39 435.215
MOZHAYETS 4 30 Sep 03:25:08 03:29:34 51° 72° (ENE) 03:34:01
KKS-1 30 Sep 03:33:29 03:37:39 40° 70° (ENE) 03:41:48 437.445
ITUPSAT 1 30 Sep 03:33:47 03:37:39 24° 265° (W) 03:41:32 437.325
Cosmos 2491 30 Sep 03:40:24 03:47:43 30° 277° (W) 03:55:01 435.465 / 435.565
PCSat 30 Sep 03:42:56 03:47:57 41° 112° (ESE) 03:53:01 145.827
AO-85 30 Sep 03:45:05 03:46:07 11° 33° (NNE) 03:47:07 145.980
SWISSCUBE 30 Sep 03:46:35 03:49:35 17° 268° (W) 03:52:37 437.505
ITAMSAT 1 30 Sep 03:47:01 03:52:12 60° 101° (ESE) 03:57:21 435.822/435.867
BEESAT 30 Sep 04:00:01 04:02:24 14° 270° (W) 04:04:47 436.000
STARS 30 Sep 04:00:37 04:04:39 37° 70° (ENE) 04:08:42 437.465
Cosmos 2504 30 Sep 04:00:37 04:07:55 69° 94° (E) 04:15:02 435.465 / 435.565
Gurwin Techsat 1B 30 Sep 04:06:14 04:10:43 28° 295° (WNW) 04:15:11 435.225
YUBILEINY 30 Sep 04:39:36 04:47:15 33° 291° (WNW) 04:54:56 435.215
AIST 1 30 Sep 04:47:12 04:51:16 38° 92° (E) 04:55:20
AO-7 30 Sep 04:49:56 04:58:17 81° 108° (ESE) 05:06:35 29.400- 29.500
CUBESAT XI-V 30 Sep 04:51:15 04:55:49 54° 73° (ENE) 05:00:26 437.345
AIST 2 30 Sep 04:57:33 05:00:25 18° 318° (NW) 05:03:18 435.215
MOZHAYETS 4 30 Sep 05:04:10 05:07:01 16° 269° (W) 05:09:53
RS-15 30 Sep 05:10:03 05:22:29 83° 240° (WSW) 05:34:35 29.354- 29.394
KKS-1 30 Sep 05:11:09 05:14:21 19° 266° (W) 05:17:34 437.445
CUSAT 1 30 Sep 05:20:24 05:27:36 42° 70° (ENE) 05:33:38 437.405
AO-85 30 Sep 05:23:18 05:27:28 67° 55° (NE) 05:31:21 145.980
PCSat 30 Sep 05:26:38 05:31:26 32° 311° (NW) 05:36:17 145.827
ITAMSAT 1 30 Sep 05:27:37 05:31:11 19° 298° (WNW) 05:34:45 435.822/435.867
DANDE 30 Sep 05:31:39 05:38:39 28° 64° (ENE) 05:45:13 436.750
STARS 30 Sep 05:37:54 05:41:08 20° 266° (W) 05:44:22 437.465
NOAA 15 30 Sep 05:42:13 05:44:08 12° 89° (E) 05:46:03 137.62
BRITE-PL 30 Sep 05:48:53 05:52:58 29° 94° (E) 05:56:48 437.365/2234.400
Cosmos 2504 30 Sep 05:56:36 06:01:57 21° 294° (WNW) 06:07:15 435.465 / 435.565
CUTE-I 30 Sep 06:05:20 06:08:48 17° 91° (E) 06:12:15 437.470
Cubesat XI-IV 30 Sep 06:06:00 06:09:28 17° 91° (E) 06:12:55 437.490
